TimeMST,TemperatureF,Dew PointF,Humidity,Sea Level PressureIn,VisibilityMPH,Wind Direction,Wind SpeedMPH,Gust SpeedMPH,PrecipitationIn,Events,Conditions,WindDirDegrees,DateUTC
12:53 AM,39.9,28.0,63,29.99,10.0,Calm,Calm,-,N/A,,Clear,0,2013-01-03 07:53:00
1:53 AM,43.0,25.0,49,29.97,10.0,Calm,Calm,-,N/A,,Clear,0,2013-01-03 08:53:00
2:53 AM,36.0,28.0,73,30.00,10.0,South,3.5,-,N/A,,Clear,170,2013-01-03 09:53:00
3:53 AM,33.1,27.0,78,29.99,10.0,WSW,3.5,-,N/A,,Clear,240,2013-01-03 10:53:00
4:53 AM,30.0,26.1,85,29.99,10.0,Calm,Calm,-,N/A,,Clear,0,2013-01-03 11:53:00
5:53 AM,32.0,26.1,79,30.00,10.0,Calm,Calm,-,N/A,,Clear,0,2013-01-03 12:53:00
6:53 AM,35.1,27.0,72,30.02,10.0,NNE,4.6,-,N/A,,Clear,30,2013-01-03 13:53:00
7:53 AM,35.1,27.0,72,30.04,10.0,Calm,Calm,-,N/A,,Clear,0,2013-01-03 14:53:00
8:53 AM,46.0,21.9,39,30.04,10.0,East,4.6,-,N/A,,Clear,100,2013-01-03 15:53:00
9:53 AM,50.0,21.0,32,30.06,10.0,ESE,12.7,-,N/A,,Clear,110,2013-01-03 16:53:00
10:53 AM,54.0,23.0,30,30.05,10.0,East,8.1,-,N/A,,Clear,90,2013-01-03 17:53:00
11:53 AM,55.9,23.0,28,30.03,10.0,ESE,23.0,28.8,N/A,,Clear,120,2013-01-03 18:53:00
12:53 PM,57.9,24.1,27,30.01,10.0,ESE,12.7,-,N/A,,Clear,120,2013-01-03 19:53:00
1:53 PM,59.0,25.0,27,29.99,10.0,East,12.7,-,N/A,,Clear,100,2013-01-03 20:53:00
2:53 PM,60.1,26.1,27,30.00,10.0,East,9.2,-,N/A,,Clear,100,2013-01-03 21:53:00
3:53 PM,57.9,26.1,30,30.02,10.0,East,8.1,-,N/A,,Scattered Clouds,100,2013-01-03 22:53:00
4:53 PM,57.0,28.0,33,30.04,10.0,East,9.2,-,N/A,,Clear,80,2013-01-03 23:53:00
5:53 PM,52.0,28.0,40,30.07,10.0,ESE,9.2,-,N/A,,Clear,120,2013-01-04 00:53:00
6:53 PM,48.9,28.0,44,30.09,10.0,ESE,11.5,-,N/A,,Clear,110,2013-01-04 01:53:00
7:53 PM,46.9,28.0,48,30.11,10.0,ESE,15.0,26.5,N/A,,Overcast,110,2013-01-04 02:53:00
8:53 PM,46.9,30.0,52,30.12,10.0,East,15.0,24.2,N/A,,Overcast,100,2013-01-04 03:53:00
9:53 PM,45.0,30.9,58,30.12,10.0,ESE,19.6,28.8,N/A,,Partly Cloudy,120,2013-01-04 04:53:00
10:53 PM,44.1,28.9,55,30.14,10.0,East,13.8,20.7,N/A,,Clear,100,2013-01-04 05:53:00
11:53 PM,44.1,28.0,53,30.14,10.0,East,15.0,21.9,N/A,,Mostly Cloudy,100,2013-01-04 06:53:00